[[{"header":{"parameterUnit":"m.s-1","parameterCategory":1,"la1":30.2991,"la2":30.254,"lo1":-89.0895,"lo2":-89.0444,"dy":0.0017,"dx":0.0017,"nx":28,"ny":28,"refTime":"2023-09-22T21:00:00:Z","depth":0,"parameterNumber":2,"parameterNumberName":"U-component_of_WINDS"},"data":[0,0,0,0,0,0,0,0,0,0,0,0,0,0,0,0,0,0,0,0,0,0,0,0,0,0,0,0,0,0,0,0,0,0,0,0,0,0,0,0,0,0,0,0,0,0,0,0,0,0,0,0,0,0,0,0,0,0,-1.4177,-1.4177,0,-1.418,-1.418,-1.418,-1.4142,-1.4141,-1.414,-1.4139,-1.4143,-1.4144,-1.4146,0,0,0,0,0,0,0,0,0,0,0,0,0,-1.414,-1.4141,-1.4177,-1.4177,-1.4177,-1.418,-1.418,-1.418,-1.4142,-1.4141,-1.4139,-1.4138,-1.4143,-1.4144,-1.4146,0,0,0,0,0,0,0,0,0,0,0,0,0,-1.4151,-1.4141,-1.4177,-1.4159,-1.4157,-1.418,-1.418,-1.418,-1.4142,-1.4141,-1.4139,-1.4138,-1.4143,-1.4144,-1.4146,-1.4188,0,0,-1.4151,-1.4152,0,0,0,0,0,0,0,0,-1.415,-1.4152,-1.4161,-1.416,-1.4158,-1.4159,-1.4169,-1.4183,-1.4143,-1.4148,-1.4139,-1.4137,-1.415,-1.4151,-1.4155,-1.4188,-1.4188,-1.4151,-1.4152,-1.4153,-1.4153,0,0,0,0,0,0,0,-1.415,-1.4152,-1.4178,-1.4161,-1.416,-1.415,-1.415,-1.4171,-1.4158,-1.4147,-1.4145,-1.4145,-1.4149,-1.4153,-1.4155,-1.4188,-1.4151,-1.4152,-1.4154,-1.4154,-1.4255,-1.4257,0,0,0,0,0,0,-1.4151,-1.4152,-1.4178,-1.4179,-1.415,-1.4152,-1.4152,-1.416,-1.4157,-1.4155,-1.4147,-1.4144,-1.4151,-1.4153,-1.4155,-1.4203,-1.4153,-1.4154,-1.4155,-1.4254,-1.4256,-1.4258,0,0,0,0,0,0,-1.4151,-1.4154,-1.4178,-1.4164,-1.4167,-1.4155,-1.4164,-1.4161,-1.4166,-1.4157,-1.4155,-1.4154,-1.415,-1.4153,-1.418,-1.4203,-1.4155,-1.4157,-1.4252,-1.4254,-1.4257,-1.4301,0,0,0,0,0,0,-1.415,-1.4154,-1.4169,-1.4165,-1.4168,-1.4203,-1.4166,-1.4162,-1.4169,-1.4164,-1.4163,-1.4161,-1.4149,-1.4177,-1.4181,-1.4204,-1.4158,-1.425,-1.4253,-1.4256,-1.4297,-1.4304,-1.4311,0,0,0,0,0,-1.4148,-1.4182,-1.417,-1.4174,-1.4187,-1.4204,-1.4206,-1.419,-1.4171,-1.4186,-1.418,-1.4161,-1.42,-1.418,-1.4185,-1.4208,-1.4248,-1.4252,-1.4256,-1.4294,-1.4303,-1.431,0,0,0,0,0,0,-1.419,-1.4181,-1.4168,-1.4201,-1.4204,-1.4197,-1.4217,-1.4201,-1.4209,-1.4205,-1.4186,-1.4187,-1.4217,-1.4215,-1.4194,-1.4249,-1.422,-1.4225,-1.4248,-1.4257,-1.4263,-1.4263,-1.4159,0,0,0,0,0,-1.4203,-1.4217,-1.4209,-1.4239,-1.4241,-1.4229,-1.4236,-1.4224,-1.4226,-1.4227,-1.4223,-1.4226,-1.4239,-1.4248,-1.4259,-1.4297,-1.4296,-1.4315,-1.4322,-1.4328,-1.4332,-1.4352,-1.436,-1.427,-1.427,-1.427,0,0,-1.423,-1.4227,-1.4237,-1.4247,-1.4248,-1.4264,-1.423,-1.4248,-1.4259,-1.423,-1.4255,-1.4252,-1.4255,-1.4287,-1.4301,-1.4287,-1.4357,-1.4333,-1.4337,-1.4338,-1.4356,-1.4365,-1.4373,-1.4273,-1.4272,-1.4272,0,0,-1.4287,-1.4286,-1.4311,-1.4312,-1.4313,-1.4305,-1.4311,-1.4307,-1.4304,-1.4329,-1.4307,-1.4321,-1.4343,-1.4346,-1.435,-1.4408,-1.4391,-1.4412,-1.4448,-1.4467,-1.4474,-1.448,-1.4501,-1.4508,-1.4417,-1.4417,-1.4417,0,-1.4321,-1.4343,-1.4326,-1.4345,-1.435,-1.4324,-1.4349,-1.4351,-1.4356,-1.436,-1.4344,-1.4371,-1.4371,-1.4404,-1.4418,-1.4422,-1.4429,-1.4412,-1.4474,-1.448,-1.4486,-1.4505,-1.4513,-1.4419,-1.4419,-1.4419,-1.4419,0,-1.4384,-1.44,-1.442,-1.4424,-1.4432,-1.4454,-1.4441,-1.445,-1.4438,-1.4432,-1.4457,-1.4456,-1.4467,-1.4474,-1.4462,-1.4505,-1.4496,-1.4477,-1.4449,-1.4497,-1.4515,-1.4523,-1.4423,-1.4422,-1.4421,-1.4421,0,0,-1.4467,-1.4462,-1.4469,-1.4471,-1.447,-1.4482,-1.4504,-1.4513,-1.4522,-1.4526,-1.4544,-1.4563,-1.4546,-1.4551,-1.454,-1.4557,-1.4603,-1.4536,-1.4536,-1.4548,-1.4649,-1.4663,-1.4672,-1.4591,-1.4593,-1.4594,-1.4649,0,-1.4522,-1.4557,-1.4542,-1.4579,-1.4593,-1.4569,-1.4587,-1.4589,-1.4584,-1.4595,-1.459,-1.4604,-1.458,-1.4583,-1.4599,-1.4594,-1.4623,-1.459,-1.4607,-1.4608,-1.4607,-1.4681,-1.4695,-1.4747,-1.4656,-1.4657,-1.4658,0,-1.4591,-1.4597,-1.4635,-1.4632,-1.4637,-1.4654,-1.4661,-1.4673,-1.4675,-1.467,-1.4675,-1.466,-1.4681,-1.4653,-1.4682,-1.4659,-1.4666,-1.4665,-1.4666,-1.4667,-1.4636,-1.4683,-1.4763,-1.4771,-1.4669,-1.4668,-1.4667,0,-1.4647,-1.4665,-1.469,-1.4693,-1.4689,-1.4701,-1.4701,-1.4701,-1.4708,-1.4714,-1.4719,-1.4728,-1.4734,-1.4742,-1.473,-1.471,-1.476,-1.4731,-1.4757,-1.4757,-1.4768,-1.4768,-1.485,-1.4773,-1.4773,-1.4773,-1.4773,0,-1.471,-1.4734,-1.4715,-1.4731,-1.4757,-1.474,-1.4767,-1.4764,-1.4764,-1.4779,-1.4758,-1.4772,-1.4756,-1.4769,-1.476,-1.4785,-1.4788,-1.4785,-1.4782,-1.4786,-1.4786,-1.479,-1.4786,-1.4775,-1.4775,-1.4774,-1.4774,0,-1.4777,-1.4765,-1.4791,-1.4785,-1.4784,-1.4804,-1.48,-1.4814,-1.4807,-1.4826,-1.4829,-1.4819,-1.4833,-1.4822,-1.4836,-1.483,-1.4863,-1.4856,-1.4862,-1.486,-1.4886,-1.4884,-1.4974,-1.4985,-1.4901,-1.4902,-1.4903,0,-1.4817,-1.4835,-1.4831,-1.4839,-1.4839,-1.4853,-1.4859,-1.4844,-1.4851,-1.4855,-1.4869,-1.4881,-1.489,-1.4914,-1.4908,-1.4919,-1.4911,-1.4942,-1.4912,-1.4916,-1.4911,-1.491,-1.4911,-1.4947,-1.4948,-1.4949,-1.495,0,-1.489,-1.4884,-1.4893,-1.4901,-1.491,-1.4915,-1.4919,-1.4927,-1.4912,-1.4921,-1.4935,-1.4942,-1.4956,-1.4969,-1.4977,-1.4977,-1.4961,-1.4959,-1.4966,-1.497,-1.4973,-1.4971,-1.4878,-1.4957,-1.4956,-1.4956,-1.4955,-1.4955,-1.4945,-1.4959,-1.4959,-1.497,-1.4972,-1.4976,-1.4989,-1.4984,-1.4995,-1.5004,-1.4995,-1.5012,-1.5013,-1.5023,-1.5025,-1.5038,-1.5025,-1.5035,-1.5037,-1.504,-1.5043,-1.4971,-1.504,-1.5039,-1.5039,-1.5039,-1.5039,0,-1.5016,-1.5015,-1.5026,-1.5032,-1.5041,-1.5024,-1.5028,-1.5037,-1.5052,-1.5054,-1.5063,-1.5079,-1.5091,-1.5087,-1.5097,-1.5109,-1.5102,-1.5112,-1.5111,-1.5111,-1.5054,-1.5047,-1.5118,-1.5118,-1.5118,-1.5118,-1.5118,-1.5118,-1.5055,-1.5078,-1.5072,-1.5096,-1.5094,-1.511,-1.5113,-1.5117,-1.5119,-1.5138,-1.5147,-1.5144,-1.5143,-1.5154,-1.5164,-1.5163,-1.5168,-1.5181,-1.5176,-1.5123,-1.5115,-1.5108,-1.5101,-1.5182,-1.5182,-1.5232,-1.5233,-1.5233]},{"header":{"parameterUnit":"m.s-1","parameterCategory":1,"la1":30.2991,"la2":30.254,"lo1":-89.0895,"lo2":-89.0444,"dy":0.0017,"dx":0.0017,"nx":28,"ny":28,"refTime":"2023-09-22T21:00:00:Z","depth":0,"parameterNumber":3,"parameterNumberName":"V-component_of_WINDS"},"data":[0,0,0,0,0,0,0,0,0,0,0,0,0,0,0,0,0,0,0,0,0,0,0,0,0,0,0,0,0,0,0,0,0,0,0,0,0,0,0,0,0,0,0,0,0,0,0,0,0,0,0,0,0,0,0,0,0,0,0.4662,0.4661,0,0.4578,0.4577,0.4576,0.4531,0.4531,0.4531,0.4531,0.4442,0.444,0.4438,0,0,0,0,0,0,0,0,0,0,0,0,0,0.4783,0.4781,0.4662,0.4661,0.466,0.4578,0.4577,0.4575,0.4531,0.4531,0.4531,0.4531,0.4443,0.444,0.4437,0,0,0,0,0,0,0,0,0,0,0,0,0,0.4718,0.4781,0.4662,0.4628,0.4624,0.4578,0.4577,0.4575,0.4531,0.4531,0.4531,0.4531,0.4444,0.444,0.4437,0.4417,0,0,0.4426,0.4425,0,0,0,0,0,0,0,0,0.4722,0.4713,0.4634,0.4631,0.4626,0.4565,0.4586,0.4522,0.4531,0.4567,0.4531,0.4531,0.4483,0.4476,0.446,0.4413,0.4409,0.4426,0.4424,0.4422,0.4421,0,0,0,0,0,0,0,0.4726,0.4717,0.4629,0.4633,0.4628,0.4616,0.4607,0.4574,0.4526,0.4564,0.456,0.4551,0.4481,0.4464,0.4458,0.4408,0.4426,0.4423,0.4421,0.4419,0.434,0.434,0,0,0,0,0,0,0.4737,0.4721,0.4631,0.4626,0.4675,0.4614,0.4604,0.4585,0.4526,0.4518,0.4551,0.4549,0.447,0.4462,0.4455,0.4428,0.4422,0.4419,0.4417,0.434,0.434,0.434,0,0,0,0,0,0,0.4739,0.4729,0.4635,0.4672,0.466,0.4612,0.4591,0.4583,0.4566,0.4517,0.4508,0.4543,0.4469,0.446,0.4427,0.4424,0.4418,0.4414,0.434,0.434,0.434,0.4374,0,0,0,0,0,0,0.4743,0.473,0.4723,0.4673,0.4658,0.4609,0.4591,0.4581,0.4561,0.4557,0.4507,0.4499,0.4469,0.4433,0.4424,0.4419,0.4412,0.434,0.434,0.434,0.4373,0.4376,0.4377,0,0,0,0,0,0.4747,0.4735,0.4723,0.4712,0.4648,0.4609,0.4601,0.4567,0.4561,0.4553,0.4521,0.45,0.4426,0.443,0.4419,0.4414,0.434,0.434,0.434,0.4372,0.4375,0.4377,0,0,0,0,0,0,0.4785,0.4728,0.4713,0.4685,0.4653,0.4602,0.4591,0.4571,0.4539,0.4537,0.4496,0.4485,0.4457,0.4432,0.4437,0.4392,0.4381,0.4379,0.4409,0.4411,0.4413,0.442,0.4409,0,0,0,0,0,0.4791,0.4765,0.4716,0.4696,0.468,0.4638,0.462,0.4597,0.4562,0.4547,0.4513,0.4479,0.4448,0.4428,0.4397,0.4369,0.4358,0.436,0.4363,0.4365,0.4363,0.4347,0.4348,0.434,0.434,0.434,0,0,0.4801,0.4766,0.4753,0.4702,0.4674,0.4648,0.4627,0.46,0.458,0.4543,0.4511,0.4484,0.4443,0.4413,0.4398,0.4392,0.4363,0.4364,0.4366,0.4364,0.4347,0.4348,0.4348,0.434,0.434,0.434,0,0,0.4806,0.4778,0.4758,0.473,0.4689,0.4661,0.4656,0.4609,0.459,0.4557,0.4529,0.4504,0.4451,0.4423,0.4402,0.4397,0.4376,0.4387,0.4398,0.4383,0.4384,0.4384,0.4382,0.4382,0.4386,0.4386,0.4386,0,0.4824,0.4784,0.475,0.4724,0.4703,0.4669,0.4648,0.4623,0.4573,0.4559,0.4552,0.4485,0.4455,0.4418,0.4417,0.4401,0.4394,0.4393,0.4386,0.4386,0.4386,0.4384,0.4383,0.4388,0.4388,0.4388,0.4387,0,0.4808,0.4781,0.477,0.4723,0.47,0.4677,0.4639,0.4619,0.4599,0.4571,0.4538,0.4501,0.4461,0.4451,0.4429,0.4411,0.4408,0.4394,0.4383,0.4389,0.4386,0.4385,0.439,0.439,0.4389,0.4389,0,0,0.4835,0.477,0.4767,0.4745,0.4697,0.4675,0.465,0.4612,0.4597,0.4563,0.4541,0.4497,0.4485,0.4461,0.4436,0.4422,0.4421,0.441,0.4409,0.4414,0.4398,0.4408,0.4408,0.4407,0.4407,0.4407,0.4401,0,0.4834,0.4789,0.4757,0.4724,0.4698,0.4666,0.4644,0.4612,0.4586,0.456,0.453,0.45,0.4486,0.4471,0.4456,0.4424,0.4417,0.4424,0.4386,0.4385,0.4397,0.4407,0.4418,0.4415,0.44,0.44,0.44,0,0.4826,0.4795,0.476,0.4715,0.4702,0.4684,0.4647,0.4622,0.4584,0.4566,0.454,0.4515,0.4486,0.4477,0.4438,0.4443,0.4425,0.4407,0.4406,0.4402,0.4393,0.4402,0.4413,0.4412,0.4397,0.4398,0.4398,0,0.485,0.4799,0.4771,0.4754,0.47,0.4688,0.4664,0.4627,0.4606,0.4573,0.4559,0.4523,0.4504,0.4476,0.4442,0.4438,0.4405,0.4394,0.4389,0.439,0.4384,0.4385,0.4392,0.4372,0.4372,0.4372,0.4372,0,0.4852,0.4832,0.4781,0.4764,0.4741,0.4704,0.4681,0.4655,0.4622,0.4598,0.4568,0.4546,0.4502,0.4475,0.4448,0.4419,0.4411,0.4395,0.4388,0.4398,0.44,0.4386,0.4385,0.4372,0.4372,0.4372,0.4372,0,0.4875,0.484,0.4808,0.476,0.4747,0.4732,0.469,0.4672,0.4644,0.4615,0.4606,0.4563,0.4529,0.4492,0.4447,0.4428,0.4401,0.4391,0.4415,0.4411,0.4408,0.4409,0.4407,0.4404,0.4387,0.4387,0.4387,0,0.4878,0.4862,0.4813,0.4795,0.4773,0.4746,0.4725,0.4688,0.4667,0.4623,0.461,0.4575,0.4545,0.4493,0.4457,0.4421,0.441,0.4412,0.4405,0.4415,0.441,0.4412,0.441,0.4414,0.4414,0.4415,0.4415,0,0.4889,0.4873,0.4844,0.4809,0.4785,0.4756,0.4725,0.4713,0.4669,0.4647,0.4614,0.459,0.4544,0.4509,0.447,0.4445,0.4422,0.4417,0.4414,0.4425,0.4439,0.4431,0.442,0.4418,0.4417,0.4417,0.4417,0.4417,0.4902,0.4886,0.4849,0.4818,0.4791,0.4763,0.4744,0.4714,0.4686,0.4646,0.4625,0.4592,0.4554,0.4499,0.4474,0.4447,0.444,0.4436,0.4435,0.4434,0.4437,0.4443,0.444,0.444,0.4439,0.4439,0.4439,0,0.4911,0.4886,0.4858,0.4816,0.4792,0.4774,0.4739,0.4719,0.4691,0.4658,0.4629,0.459,0.4556,0.4517,0.4481,0.4466,0.4455,0.4458,0.4459,0.4453,0.4446,0.4452,0.4468,0.4468,0.4468,0.4468,0.4468,0.4468,0.4913,0.4886,0.4865,0.4823,0.4797,0.4765,0.4747,0.4721,0.4694,0.4653,0.4625,0.46,0.4564,0.4525,0.4493,0.4482,0.447,0.4476,0.4462,0.4456,0.4454,0.4451,0.4457,0.4474,0.4474,0.4472,0.4472,0.4472]}]]